Temperature
1 1 1 1 1 1 1 1 1 2 2 2 2 2 2 2 2 2 2 2 2 2 2 2 2 2 1 1 1 1 1 2 2 2 2 2 2 2 1 1 1 2 2 1
0 1 1 1 1 1 1 1 1 1 1 2 2 2 2 2 2 2 2 2 2 2 2 2 1 1 1 1 1 1 1 1 1 1 1 1 1 1 1 1 1 1 1 1
0 0 1 1 1 1 1 -0 0 1 2 1 1 1 2 2 2 2 2 2 2 1 1 1 1 1 1 1 0 0 0 0 0 0 0 0 0 0 0 0 0 0 0 0
-1 0 1 2 1 0 1 1 -0 1 1 1 1 2 2 2 2 2 2 2 2 1 1 1 1 0 0 0 0 -0 -0 0 -0 -0 -0 -0 -0 -0 -0 -0 -0 -0 -0 -0
-1 -1 0 1 1 0 0 1 0 0 0 1 1 1 1 2 2 2 2 2 1 1 1 0 0 -0 -0 -0 -0 -1 -0 -0 -0 -1 -1 -1 -0 -1 -1 -1 -1 -1 -1 -1
-2 -0 1 2 1 1 1 1 1 0 -0 0 0 -1 0 2 2 2 1 1 1 1 0 0 -0 -0 -1 -1 -1 -1 -1 -1 -1 -1 -1 -1 -1 -1 -1 -1 -1 -1 -1 -1
-1 -1 0 1 1 1 1 2 2 1 1 1 0 1 2 2 1 1 1 1 0 0 -0 -0 -1 -1 -1 -1 -1 -1 -1 -1 -1 -1 -1 -1 -1 -2 -2 -2 -2 -2 -2 -2
-2 -1 0 1 -0 0 1 2 2 2 2 1 2 2 1 1 1 1 0 0 -0 -0 -1 -1 -1 -1 -1 -1 -2 -2 -2 -2 -2 -2 -2 -2 -2 -2 -2 -2 -2 -2 -2 -2
-1 0 1 1 1 2 2 2 2 2 2 1 1 1 1 1 0 0 -0 -0 -1 -1 -1 -1 -2 -2 -2 -2 -2 -2 -2 -2 -2 -2 -2 -2 -2 -2 -3 -3 -3 -3 -3 -3
-2 -1 -0 1 2 2 2 2 2 2 2 1 1 1 0 0 -0 -0 -1 -1 -1 -1 -1 -2 -2 -2 -2 -2 -2 -3 -2 -3 -3 -3 -3 -3 -3 -3 -3 -3 -3 -3 -3 -3
-2 -2 -1 1 2 2 2 2 1 1 1 1 0 0 -0 -0 -1 -1 -1 -1 -2 -2 -2 -2 -2 -2 -3 -3 -3 -3 -3 -3 -3 -3 -3 -3 -3 -4 -4 -4 -4 -4 -4 -4
-1 -0 -1 1 2 2 2 1 1 1 1 0 -0 -0 -1 -1 -1 -1 -2 -2 -2 -2 -2 -2 -3 -3 -3 -3 -3 -3 -3 -3 -3 -3 -4 -4 -4 -4 -4 -4 -4 -4 -4 -4
2 2 2 2 2 1 1 1 1 0 0 -0 -1 -1 -1 -1 -1 -2 -2 -2 -2 -2 -3 -3 -3 -3 -3 -3 -3 -3 -3 -3 -4 -4 -4 -4 -4 -4 -4 -4 -4 -4 -4 -4
1 1 1 1 1 1 1 0 0 -0 -1 -1 -1 -1 -1 -2 -2 -2 -2 -2 -3 -3 -3 -3 -3 -3 -3 -3 -3 -3 -4 -4 -4 -4 -4 -5 -5 -5 -5 -5 -4 -4 -5 -5
1 1 1 1 0 0 0 -0 -1 -1 -1 -1 -2 -2 -2 -2 -2 -2 -2 -3 -3 -3 -3 -3 -3 -3 -3 -3 -4 -4 -4 -4 -4 -4 -5 -5 -5 -5 -5 -5 -5 -5 -5 -5
0 0 0 -0 -0 -0 -1 -1 -1 -1 -2 -2 -2 -2 -2 -2 -3 -3 -3 -3 -3 -3 -3 -4 -4 -4 -4 -4 -4 -4 -4 -4 -5 -5 -5 -5 -5 -6 -6 -6 -6 -6 -6 -6
-1 -1 -1 -1 -1 -1 -1 -1 -1 -2 -2 -2 -2 -2 -2 -3 -3 -3 -3 -3 -3 -3 -4 -4 -4 -4 -4 -4 -4 -4 -5 -5 -5 -5 -5 -6 -6 -6 -6 -6 -6 -6 -6 -6
-0 -0 -0 -0 -1 -1 -1 -1 -2 -2 -2 -2 -2 -2 -3 -3 -3 -3 -3 -3 -3 -3 -4 -4 -4 -4 -4 -4 -5 -5 -5 -5 -5 -6 -6 -6 -6 -6 -6 -6 -6 -6 -6 -6
-1 -1 -1 -1 -1 -1 -1 -2 -2 -2 -2 -2 -3 -3 -3 -3 -3 -3 -3 -4 -4 -4 -4 -4 -4 -5 -5 -5 -5 -5 -5 -5 -5 -6 -6 -6 -6 -6 -7 -7 -7 -7 -7 -7
-1 -1 -1 -1 -1 -1 -2 -2 -2 -2 -2 -3 -3 -3 -3 -3 -3 -4 -4 -4 -4 -4 -4 -4 -5 -5 -5 -5 -5 -5 -5 -5 -6 -6 -6 -6 -6 -7 -7 -7 -7 -7 -7 -7
-1 -1 -1 -1 -1 -2 -2 -2 -2 -2 -3 -3 -3 -3 -3 -4 -4 -4 -4 -4 -4 -4 -5 -5 -5 -5 -5 -5 -5 -5 -6 -6 -6 -6 -6 -6 -7 -7 -7 -7 -7 -7 -7 -7
-2 -2 -2 -2 -2 -2 -2 -2 -2 -3 -3 -3 -3 -4 -4 -4 -4 -4 -4 -4 -4 -5 -5 -5 -5 -5 -5 -6 -6 -6 -6 -6 -6 -7 -7 -7 -7 -7 -7 -7 -7 -7 -7 -7
-2 -2 -2 -2 -2 -2 -2 -3 -3 -3 -3 -3 -4 -4 -4 -4 -4 -4 -4 -4 -5 -5 -5 -5 -5 -5 -6 -6 -6 -6 -6 -7 -7 -7 -7 -7 -7 -7 -7 -7 -7 -7 -8 -7
-2 -2 -2 -2 -3 -3 -3 -3 -3 -3 -3 -4 -4 -4 -4 -4 -4 -4 -5 -5 -5 -5 -5 -5 -6 -6 -6 -6 -6 -7 -7 -7 -7 -7 -7 -7 -8 -8 -8 -8 -8 -8 -8 -8
-2 -2 -3 -3 -3 -3 -3 -3 -3 -4 -4 -4 -4 -4 -4 -5 -5 -5 -5 -5 -5 -5 -6 -6 -6 -6 -6 -6 -7 -7 -7 -7 -7 -8 -8 -8 -8 -8 -8 -8 -8 -8 -8 -8
-2 -3 -3 -3 -3 -3 -4 -4 -4 -4 -4 -4 -4 -5 -5 -5 -5 -5 -5 -5 -6 -6 -6 -6 -6 -6 -7 -7 -7 -7 -7 -7 -7 -8 -8 -8 -8 -8 -8 -8 -8 -8 -8 -8
-3 -3 -3 -4 -4 -4 -4 -4 -4 -4 -4 -5 -5 -5 -5 -5 -5 -6 -6 -6 -6 -6 -6 -6 -7 -7 -7 -7 -7 -7 -7 -8 -8 -8 -8 -8 -8 -8 -8 -8 -8 -8 -8 -8
Wind_Speed
6 5 4 6 8 7 9 8 9 9 10 11 8 7 5 4 3 2 2 2 2 2 2 2 2 2 2 2 2 2 2 3 4 4 3 3 3 3 3 3 4 3 3 3
4 5 5 7 9 10 11 9 10 10 13 10 7 4 5 5 4 4 5 5 4 3 3 3 3 3 3 3 3 2 3 4 4 3 3 3 3 3 3 3 3 3 4 4
4 4 4 8 10 11 8 8 9 12 12 6 5 6 7 7 6 7 6 6 5 5 5 5 4 4 4 4 3 3 4 4 4 4 4 4 4 3 4 4 3 4 4 4
2 1 6 8 4 7 8 10 10 8 7 7 8 7 6 6 6 6 6 6 5 5 4 4 3 3 3 3 3 3 4 4 4 4 4 4 4 4 4 4 4 4 5 5
2 4 8 7 5 6 7 9 9 11 9 6 3 1 4 5 5 6 6 6 5 5 4 3 3 3 2 3 3 4 4 5 5 4 5 4 4 5 4 4 4 4 4 5
4 4 7 7 3 4 3 6 6 8 8 6 2 3 6 4 3 4 4 4 4 3 3 3 4 3 3 3 4 5 5 5 5 4 5 5 5 5 4 4 4 4 5 5
6 6 8 7 3 5 4 7 4 6 7 7 7 8 6 4 4 4 4 4 3 3 3 4 4 3 4 4 5 5 4 4 4 4 5 5 4 4 4 4 4 4 5 5
6 6 9 5 6 7 8 3 3 4 5 6 6 6 5 5 5 4 4 4 3 3 4 4 3 3 4 6 5 4 4 4 5 4 4 4 4 4 4 4 4 4 4 5
9 9 5 6 7 6 4 4 4 4 5 5 5 5 5 5 5 5 5 4 4 4 4 4 4 4 6 6 4 3 3 4 4 4 4 3 4 4 4 3 3 4 4 4
6 9 7 7 6 5 5 6 5 5 5 5 6 6 6 5 5 5 5 5 4 4 4 5 5 5 6 5 4 4 4 4 4 3 3 3 3 3 4 4 4 4 4 4
7 7 6 7 9 8 6 5 5 4 4 5 6 6 6 5 6 5 5 4 4 5 6 6 5 5 5 5 4 4 4 4 4 3 3 3 3 4 4 5 5 5 5 5
10 8 7 7 6 6 6 6 6 5 4 4 5 6 5 5 5 5 5 4 4 5 6 6 6 6 5 5 5 4 4 4 3 3 3 3 3 4 6 6 9 9 8 8
10 7 7 7 5 5 6 6 5 5 6 5 5 5 5 5 5 4 5 5 5 6 6 6 5 6 6 5 5 5 5 4 3 3 3 3 3 4 5 5 7 7 8 8
7 4 5 6 6 5 5 5 4 3 4 4 4 4 4 4 4 5 5 6 5 5 5 5 5 6 6 4 5 5 5 5 4 3 3 3 4 4 4 4 5 4 6 7
8 7 7 5 4 4 3 3 3 3 3 3 3 3 4 4 5 6 5 4 4 4 5 5 6 7 5 4 4 5 4 3 3 3 3 4 4 4 4 4 4 4 4 4
5 5 5 5 6 5 4 4 4 5 4 4 4 4 5 5 5 5 4 3 3 5 6 5 6 6 4 4 4 3 4 5 4 3 3 3 3 3 4 4 4 4 4 4
5 6 6 6 7 6 6 6 6 6 5 5 5 4 3 3 3 4 4 4 5 6 6 6 6 5 3 3 4 3 3 4 5 4 3 3 3 3 3 3 4 4 4 5
9 8 7 7 7 7 6 6 5 5 5 5 4 3 3 4 4 4 4 3 3 4 5 5 4 3 3 3 3 3 3 3 3 3 3 3 3 3 3 3 4 4 4 4
6 6 6 6 6 6 5 5 5 4 4 3 3 4 4 4 4 3 2 2 3 5 5 4 5 3 3 3 3 2 3 3 3 3 2 4 3 2 2 3 3 3 4 4
4 4 4 4 3 4 4 4 3 3 3 3 3 3 3 3 3 2 2 3 4 4 4 3 3 3 3 3 3 2 3 3 3 3 3 3 3 3 3 3 3 3 3 3
4 3 3 3 3 3 3 4 4 4 3 3 4 4 4 3 2 2 2 4 4 4 3 4 2 2 2 3 3 2 3 3 3 3 3 3 3 3 3 3 3 3 3 3
3 3 3 2 2 2 2 3 3 3 3 2 3 3 2 2 2 2 4 4 4 4 2 2 2 3 3 3 1 2 2 3 3 3 3 3 3 3 3 3 3 3 3 3
2 3 3 3 3 2 1 2 2 3 3 3 3 3 3 3 2 2 3 3 2 4 2 2 3 4 3 1 1 1 2 2 3 3 3 3 3 3 3 3 3 3 3 3
2 2 2 2 2 2 2 2 2 2 2 3 3 3 3 2 2 3 3 4 4 4 2 3 4 3 2 0 1 1 2 2 2 3 3 3 2 3 3 3 3 3 4 4
2 2 3 3 3 2 2 2 1 1 1 1 1 2 2 2 2 2 2 2 3 3 2 3 4 3 1 1 1 1 2 2 2 2 2 2 2 2 3 3 3 3 3 3
2 2 2 3 2 2 2 2 2 1 1 1 1 1 1 1 1 1 1 2 2 2 2 2 2 2 1 1 1 2 2 2 3 2 2 2 3 3 3 3 4 4 4 4
1 1 1 1 1 2 2 2 2 2 2 2 2 1 1 1 1 1 1 1 1 1 1 1 1 1 1 1 2 2 2 2 2 2 2 2 3 3 3 4 4 3 3 3
Wind_Direction
244 246 231 235 237 221 217 216 220 242 247 258 255 255 257 255 247 239 238 244 242 251 268 279 287 291 291 292 298 305 308 301 291 294 286 282 282 276 272 268 261 246 242 248
263 255 250 262 249 233 236 235 238 255 264 262 255 245 246 242 233 236 240 241 242 248 254 259 263 267 273 284 290 291 285 284 290 296 295 283 280 280 277 270 263 253 247 245
256 284 308 270 237 220 219 218 210 234 248 253 249 238 233 233 234 237 239 236 239 242 240 245 250 254 257 268 276 280 280 283 288 288 288 280 281 278 274 268 262 257 254 247
232 28 244 246 227 203 216 236 223 232 245 238 242 243 233 222 223 230 227 231 241 243 247 248 251 257 265 270 272 269 276 280 279 280 284 280 275 271 269 265 260 257 259 253
177 238 271 280 237 193 205 254 226 226 240 244 251 292 270 234 217 219 223 229 234 233 236 245 253 257 264 275 272 267 269 272 275 272 276 275 274 273 274 267 266 259 256 250
178 211 247 252 229 183 141 275 234 209 221 226 176 238 262 245 236 244 239 233 233 230 229 238 247 240 246 261 265 265 269 272 271 266 268 266 266 270 273 268 263 265 261 252
205 230 260 251 208 136 176 246 239 204 211 204 203 225 244 238 242 240 239 240 235 230 237 244 245 238 247 257 259 263 272 276 272 268 265 261 265 266 268 270 267 264 264 261
185 217 250 210 152 188 222 242 218 208 210 213 231 244 244 241 241 242 245 248 238 237 252 256 248 236 249 257 260 264 270 275 276 275 273 271 266 270 266 262 260 262 266 269
199 218 243 190 205 227 217 225 230 219 222 216 229 239 245 243 238 240 241 244 240 233 251 263 255 235 244 257 259 259 267 272 277 280 279 275 264 267 267 256 255 261 262 267
243 257 252 246 248 251 236 238 241 230 223 213 226 237 242 245 246 244 246 240 236 234 248 262 259 248 243 252 247 239 254 263 268 273 279 278 272 261 256 254 253 256 257 262
247 263 277 254 235 239 242 243 243 240 226 217 218 234 237 242 247 248 253 250 236 233 245 257 261 259 254 248 236 239 250 254 263 264 262 270 272 261 258 250 251 253 247 248
230 224 215 246 239 224 230 238 233 230 241 231 217 229 236 244 246 245 247 248 247 247 252 259 259 260 258 248 230 232 246 249 252 258 263 268 276 286 283 277 281 277 272 266
232 233 227 252 252 223 223 233 228 221 224 234 235 229 231 243 246 243 247 247 246 249 254 258 260 262 261 251 231 228 235 244 249 252 257 266 274 281 293 299 299 298 291 284
233 226 244 242 241 234 229 227 219 226 234 229 231 233 233 243 250 248 249 251 251 254 258 257 259 263 261 247 234 233 234 245 248 243 248 256 262 268 273 282 292 298 299 297
232 222 228 237 236 236 221 203 207 228 232 238 234 234 235 240 248 253 255 257 257 259 262 261 262 266 262 241 233 230 231 236 238 239 244 252 260 269 273 274 278 290 294 300
231 232 229 229 235 230 211 208 218 233 231 235 239 245 245 245 251 256 256 244 243 257 262 262 265 267 258 243 234 233 235 251 252 245 243 250 257 265 272 277 282 286 285 285
211 228 225 230 232 228 221 220 222 227 230 233 238 244 247 249 252 254 257 253 249 255 258 258 264 268 255 243 228 232 236 249 256 255 244 246 251 256 262 267 269 273 277 283
220 225 221 220 223 224 226 224 222 223 228 233 235 227 225 226 236 249 257 264 272 276 269 264 266 265 252 245 231 225 227 234 237 237 241 244 248 247 253 264 267 271 280 287
220 221 219 219 219 213 217 220 222 222 220 214 216 224 230 232 238 248 252 252 264 277 282 276 281 272 257 254 255 219 220 229 240 243 244 258 265 252 251 260 266 271 276 280
216 212 206 210 212 208 213 215 209 213 212 203 209 220 233 242 241 243 243 251 254 259 270 280 278 266 261 258 259 223 222 229 236 244 247 248 252 255 256 259 261 265 269 274
208 199 193 195 207 212 209 203 199 210 210 196 201 217 230 240 231 225 240 269 276 270 272 282 280 268 264 260 255 224 219 230 240 244 246 251 255 256 259 262 263 267 269 272
198 190 194 195 194 218 224 203 195 196 196 204 214 217 220 237 241 247 248 253 271 285 284 272 270 273 274 269 242 232 232 235 241 245 246 253 255 258 264 268 270 272 269 268
192 187 188 197 202 214 218 204 194 189 199 208 210 213 222 229 224 236 272 275 275 285 290 275 281 286 285 273 233 240 250 247 241 242 244 247 249 251 258 264 268 272 273 272
177 179 185 178 156 161 198 228 211 208 211 217 216 212 210 231 258 251 257 285 291 288 287 295 302 301 305 350 245 249 254 258 252 243 240 244 249 253 256 262 269 271 272 273
177 175 167 163 176 205 211 191 169 195 201 233 240 228 218 213 231 259 269 281 292 301 306 306 311 317 340 322 281 271 266 263 262 256 240 243 249 254 259 263 267 273 276 275
182 188 198 208 206 198 182 173 183 204 202 252 287 273 250 242 244 256 270 281 289 305 315 313 316 320 321 300 290 282 275 285 295 285 262 255 255 258 265 269 274 276 276 274
165 175 176 204 220 195 180 179 188 206 210 215 251 265 260 257 251 261 277 300 305 311 315 315 313 306 301 302 303 302 294 283 277 275 273 268 263 261 266 270 275 276 278 276
Height
1496 1494 1495 1494 1494 1495 1496 1496 1496 1488 1486 1479 1478 1478 1477 1477 1477 1476 1476 1476 1475 1475 1474 1474 1473 1473 1472 1471 1471 1470 1468 1467 1466 1466 1466 1466 1465 1465 1465 1465 1464 1464 1463 1463
1496 1492 1492 1491 1488 1489 1489 1489 1488 1486 1481 1474 1474 1475 1475 1474 1474 1474 1474 1473 1473 1473 1472 1471 1471 1470 1469 1468 1467 1466 1465 1464 1463 1462 1461 1461 1461 1460 1460 1460 1459 1459 1458 1458
1496 1493 1490 1488 1481 1481 1482 1481 1481 1480 1474 1471 1472 1471 1471 1471 1471 1471 1471 1470 1470 1470 1469 1468 1468 1467 1466 1465 1464 1463 1461 1460 1459 1458 1457 1456 1456 1455 1455 1454 1454 1454 1453 1453
1497 1496 1493 1475 1471 1472 1474 1472 1472 1470 1468 1467 1467 1466 1466 1467 1467 1467 1467 1467 1467 1466 1465 1465 1464 1463 1462 1461 1460 1458 1457 1456 1455 1454 1452 1452 1451 1450 1450 1449 1449 1448 1448 1448
1498 1496 1484 1473 1468 1469 1471 1467 1464 1465 1464 1463 1463 1464 1463 1463 1463 1463 1464 1463 1463 1462 1462 1461 1460 1459 1458 1457 1456 1454 1453 1452 1451 1449 1448 1447 1446 1446 1445 1445 1444 1443 1443 1443
1495 1491 1483 1467 1463 1462 1466 1466 1458 1458 1459 1460 1461 1465 1461 1459 1460 1460 1460 1459 1459 1458 1458 1457 1456 1455 1454 1452 1451 1450 1448 1447 1446 1445 1444 1443 1442 1441 1440 1440 1439 1439 1439 1439
1489 1488 1474 1462 1461 1463 1469 1461 1453 1453 1454 1455 1456 1457 1456 1455 1456 1456 1455 1455 1455 1454 1453 1452 1452 1451 1449 1448 1447 1446 1444 1443 1442 1441 1440 1439 1438 1437 1436 1435 1435 1434 1434 1434
1485 1484 1471 1457 1459 1460 1455 1451 1450 1450 1451 1452 1452 1452 1452 1451 1451 1451 1451 1451 1450 1449 1448 1448 1447 1446 1444 1443 1442 1441 1440 1439 1438 1436 1435 1435 1434 1433 1432 1431 1431 1430 1430 1430
1468 1462 1453 1451 1451 1450 1449 1449 1448 1448 1448 1448 1448 1448 1447 1447 1447 1447 1446 1446 1445 1445 1444 1443 1442 1441 1440 1439 1438 1437 1435 1434 1433 1432 1431 1430 1429 1428 1428 1428 1427 1426 1426 1425
1460 1452 1449 1448 1447 1447 1447 1446 1445 1445 1445 1445 1444 1444 1443 1443 1442 1442 1442 1441 1441 1440 1439 1438 1437 1437 1435 1434 1433 1432 1431 1430 1429 1428 1427 1426 1426 1425 1424 1424 1423 1422 1422 1421
1454 1447 1445 1442 1442 1442 1442 1442 1442 1442 1442 1441 1440 1440 1439 1439 1438 1438 1437 1437 1436 1435 1434 1434 1433 1432 1431 1430 1429 1428 1427 1426 1426 1424 1423 1422 1422 1421 1420 1420 1419 1418 1418 1417
1444 1439 1440 1437 1437 1438 1438 1438 1438 1437 1437 1437 1437 1436 1435 1435 1435 1434 1433 1433 1432 1431 1430 1429 1428 1427 1426 1425 1424 1423 1423 1422 1422 1421 1420 1419 1418 1417 1417 1416 1415 1415 1414 1413
1433 1433 1434 1432 1433 1433 1433 1433 1433 1433 1433 1432 1432 1432 1431 1431 1430 1430 1429 1429 1428 1427 1426 1425 1424 1423 1422 1421 1420 1419 1419 1418 1418 1417 1416 1415 1414 1413 1412 1412 1412 1411 1410 1409
1429 1430 1429 1428 1428 1429 1429 1429 1429 1429 1429 1428 1428 1428 1427 1427 1426 1426 1425 1424 1424 1423 1422 1421 1420 1418 1417 1416 1416 1415 1415 1414 1414 1413 1412 1411 1411 1410 1409 1408 1407 1406 1406 1405
1424 1424 1424 1423 1424 1424 1425 1425 1424 1424 1424 1424 1424 1423 1423 1422 1422 1421 1421 1420 1420 1418 1417 1416 1415 1414 1413 1412 1412 1411 1411 1410 1410 1409 1409 1408 1407 1406 1405 1404 1403 1402 1402 1401
1418 1419 1419 1419 1419 1419 1420 1420 1420 1419 1419 1419 1419 1419 1419 1418 1418 1417 1417 1416 1416 1414 1413 1412 1411 1410 1409 1408 1408 1407 1407 1407 1406 1405 1405 1404 1403 1402 1401 1401 1400 1399 1398 1397
1413 1413 1413 1414 1414 1414 1415 1415 1415 1415 1415 1415 1415 1414 1414 1414 1413 1413 1413 1412 1412 1411 1410 1409 1408 1407 1406 1405 1404 1403 1403 1403 1402 1402 1401 1400 1400 1399 1398 1397 1396 1395 1395 1394
1407 1408 1408 1409 1409 1410 1410 1411 1411 1411 1411 1411 1411 1410 1410 1410 1409 1409 1409 1409 1408 1407 1406 1405 1404 1403 1402 1401 1400 1400 1399 1399 1398 1398 1397 1397 1396 1396 1395 1394 1393 1392 1391 1391
1402 1403 1403 1404 1405 1405 1406 1406 1407 1407 1407 1407 1407 1407 1407 1406 1406 1406 1406 1405 1404 1403 1402 1401 1400 1399 1398 1397 1397 1396 1395 1395 1395 1394 1394 1393 1393 1392 1392 1391 1390 1389 1388 1387
1397 1398 1399 1400 1401 1402 1402 1402 1403 1403 1404 1404 1404 1404 1403 1403 1403 1403 1402 1402 1401 1400 1399 1398 1397 1395 1394 1394 1393 1392 1392 1391 1391 1391 1390 1390 1389 1389 1388 1388 1387 1386 1385 1384
1394 1394 1395 1396 1397 1398 1399 1399 1400 1400 1400 1400 1400 1400 1400 1400 1400 1400 1399 1398 1398 1397 1396 1395 1394 1392 1391 1390 1390 1389 1389 1388 1388 1387 1387 1386 1386 1386 1385 1385 1384 1383 1382 1381
1391 1392 1393 1394 1394 1395 1396 1396 1397 1397 1397 1397 1397 1398 1398 1397 1397 1397 1397 1396 1395 1394 1393 1392 1391 1390 1389 1388 1387 1386 1385 1385 1385 1384 1384 1383 1383 1382 1382 1381 1380 1380 1379 1378
1390 1390 1391 1392 1393 1393 1394 1394 1394 1394 1395 1395 1395 1395 1395 1395 1395 1394 1394 1394 1393 1392 1390 1389 1388 1387 1386 1385 1384 1383 1382 1382 1381 1381 1381 1380 1380 1379 1379 1378 1377 1377 1376 1375
1388 1389 1390 1390 1391 1391 1391 1392 1392 1392 1393 1393 1393 1393 1393 1392 1392 1392 1392 1391 1390 1389 1388 1387 1386 1385 1384 1382 1381 1380 1379 1378 1378 1378 1377 1377 1377 1376 1376 1375 1374 1373 1372 1372
1387 1388 1388 1389 1389 1389 1390 1390 1390 1390 1390 1391 1391 1391 1391 1391 1390 1390 1389 1389 1388 1387 1386 1385 1384 1383 1381 1380 1379 1377 1376 1375 1375 1374 1374 1373 1373 1373 1372 1371 1371 1370 1369 1368
1386 1386 1387 1387 1388 1388 1388 1388 1388 1388 1388 1388 1389 1389 1388 1388 1388 1388 1387 1386 1385 1385 1384 1383 1382 1380 1379 1378 1376 1375 1374 1373 1372 1371 1371 1370 1370 1369 1369 1368 1367 1367 1366 1365
1384 1384 1385 1385 1386 1386 1386 1386 1386 1386 1387 1387 1387 1386 1386 1386 1386 1385 1385 1384 1383 1382 1382 1381 1379 1378 1377 1376 1374 1373 1372 1371 1370 1369 1368 1367 1367 1366 1365 1365 1364 1363 1363 1362